Date,TemperatureHighF,TemperatureAvgF,TemperatureLowF,DewpointHighF,DewpointAvgF,DewpointLowF,HumidityHigh,HumidityAvg,HumidityLow,PressureMaxIn,PressureMinIn,WindSpeedMaxMPH,WindSpeedAvgMPH,GustSpeedMaxMPH,PrecipitationSumIn
2013-1-1,24.4,17.9,10.4,17.8,12.3,7.4,90,78,65,29.95,29.87,11,5,16,0.00
2013-1-2,28.8,16.6,5.0,19.4,12.0,4.9,100,83,55,29.95,29.86,13,5,15,0.00
2013-1-3,36.5,25.7,14.4,30.3,22.7,11.9,100,89,74,30.06,29.86,14,6,18,0.00
2013-1-4,37.2,25.5,11.8,26.6,20.5,11.0,100,82,61,30.08,29.98,21,8,25,0.00
2013-1-5,41.4,31.8,21.2,34.8,28.7,20.1,100,88,75,29.99,29.74,16,8,25,0.00
2013-1-6,37.4,29.8,20.8,34.8,25.2,20.6,100,83,69,30.06,29.72,20,8,28,0.00
2013-1-7,41.7,30.3,19.8,31.1,26.1,19.6,100,85,62,30.08,29.84,22,10,27,0.00
2013-1-8,51.4,37.0,27.3,39.0,31.6,26.2,97,82,54,29.90,29.79,14,8,20,0.00
2013-1-9,52.5,41.9,30.7,39.6,35.5,30.3,100,79,51,30.20,29.81,15,6,21,0.00
2013-1-10,53.4,40.5,30.6,53.2,38.3,29.3,100,92,70,30.17,29.48,11,5,18,0.00
2013-1-11,60.3,54.4,48.2,56.9,52.8,47.9,100,95,78,29.55,29.44,26,15,35,0.00
2013-1-12,55.2,45.0,29.7,53.1,42.7,29.2,100,92,64,29.66,29.47,24,10,32,0.00
2013-1-13,29.8,22.0,15.4,29.6,20.2,13.3,100,93,81,30.03,29.59,0,0,0,0.00
2013-1-14,33.8,19.0,14.0,24.2,15.7,11.8,100,87,63,30.17,30.03,0,0,0,0.00
2013-1-15,30.6,21.6,12.0,25.5,19.5,11.8,100,92,74,30.13,29.82,0,0,0,0.00
2013-1-16,39.0,30.2,17.8,30.8,24.7,17.6,99,81,57,29.83,29.67,21,3,27,0.00
2013-1-17,36.7,31.9,23.7,32.8,26.3,18.7,100,81,53,30.16,29.78,24,7,32,0.00
2013-1-18,44.8,34.2,22.5,34.3,27.6,20.0,100,78,56,30.17,29.77,30,16,40,0.00
2013-1-19,57.7,45.8,36.5,39.5,34.4,30.5,84,65,46,29.77,29.56,30,16,40,0.00
2013-1-20,39.9,23.6,18.7,31.3,14.3,8.8,90,68,50,30.05,29.77,25,9,35,0.00
2013-1-21,19.2,13.2,5.9,15.6,0.8,-6.8,86,58,38,30.07,29.95,24,10,34,0.00
2013-1-22,16.7,10.4,4.1,4.9,-2.0,-6.7,76,58,36,30.15,30.05,14,5,19,0.00
2013-1-23,37.9,24.8,11.8,20.6,11.9,1.9,74,58,42,30.07,29.81,22,7,32,0.00
2013-1-24,28.4,19.5,9.5,10.4,5.9,-1.0,81,55,39,30.31,29.99,21,8,30,0.00
2013-1-25,39.9,29.9,23.4,22.1,15.8,4.3,78,56,42,29.99,29.75,21,7,27,0.00
2013-1-26,43.2,26.5,13.8,21.7,13.2,8.5,80,59,26,30.10,29.90,14,4,20,0.00
2013-1-27,46.0,32.8,21.7,45.8,30.9,18.6,100,93,80,30.03,29.64,22,8,30,0.00
2013-1-28,65.3,54.7,45.9,65.0,54.5,45.6,99,99,99,29.92,29.58,22,14,29,0.00
2013-1-29,66.0,60.1,52.2,65.7,59.8,51.9,100,99,96,29.87,29.45,33,16,38,0.00
2013-1-30,52.9,38.2,23.2,52.3,35.8,15.6,100,91,69,29.87,29.36,36,15,44,0.00
2013-1-31,26.2,19.4,7.2,20.9,10.5,-3.5,85,68,55,30.36,29.87,28,14,38,0.00
2013-2-1,23.2,14.2,4.3,21.9,4.3,-2.2,99,65,47,30.49,30.22,20,10,28,0.00
2013-2-2,33.6,25.3,19.2,26.2,20.1,14.7,99,81,71,30.23,30.08,21,10,28,0.00
2013-2-3,33.4,26.3,19.9,27.3,19.4,11.4,100,77,43,30.17,30.02,24,7,33,0.00
2013-2-4,49.5,33.8,24.8,31.0,26.7,20.6,93,76,45,30.06,29.82,18,10,27,0.00
2013-2-5,47.7,34.3,25.2,34.3,30.0,24.9,100,86,57,30.15,29.89,23,8,33,0.00
2013-2-6,52.0,36.9,24.1,37.3,31.4,23.7,100,83,48,30.27,30.11,14,4,17,0.00
2013-2-7,42.6,37.9,32.5,42.4,37.4,32.1,100,98,83,30.13,29.89,22,5,30,0.00
2013-2-8,36.1,30.8,28.6,35.9,29.0,25.4,100,93,85,30.43,30.05,21,9,30,0.00
2013-2-9,37.9,32.2,29.3,36.2,29.2,26.3,96,88,76,30.41,29.83,16,5,22,0.00
2013-2-10,52.5,44.7,36.7,51.9,43.2,34.4,100,95,59,29.84,29.36,30,14,42,11.54
2013-2-11,45.9,38.8,30.6,34.1,27.4,22.8,97,64,47,29.93,29.48,38,15,54,2.24
2013-2-12,44.2,32.8,25.9,33.0,29.4,25.5,100,88,57,29.95,29.72,11,3,14,0.00
2013-2-13,52.0,39.1,29.7,36.0,30.8,25.1,100,76,37,29.73,29.55,23,6,30,0.00
2013-2-14,48.7,39.4,32.7,36.6,33.8,30.4,100,82,52,29.83,29.55,21,8,34,0.00
2013-2-15,36.0,30.0,22.6,32.6,21.4,11.6,100,71,37,30.03,29.83,18,9,26,0.00
2013-2-16,32.7,23.6,16.2,16.6,13.0,7.7,85,65,36,30.03,29.93,16,7,24,0.00
2013-2-17,43.0,28.6,12.9,25.5,18.7,10.3,92,69,39,30.01,29.73,16,5,22,0.00
2013-2-18,57.2,43.1,33.1,48.7,35.8,24.7,91,75,68,29.73,29.39,36,18,45,16.00
2013-2-20,25.3,22.1,14.2,19.3,12.0,4.3,100,66,49,30.21,30.10,12,6,16,0.00
2013-2-21,30.6,24.0,15.3,30.3,22.5,15.1,100,94,80,30.14,29.63,27,9,35,0.07
2013-2-22,37.4,31.7,26.8,36.3,29.3,21.8,100,91,78,29.82,29.58,24,8,34,0.14
2013-2-23,32.2,25.8,18.5,23.3,21.0,18.3,100,82,63,29.82,29.76,14,5,19,0.00
2013-2-24,46.9,30.9,17.1,31.5,24.4,16.9,100,80,42,29.93,29.80,9,2,11,0.00
2013-2-25,48.6,36.3,26.4,37.4,32.5,26.0,100,87,56,29.90,29.56,21,8,26,0.00
2013-2-26,39.2,34.0,32.2,36.4,33.7,29.8,99,99,94,29.57,29.19,33,13,45,1.38
2013-2-27,34.0,33.3,32.0,33.7,33.0,31.6,99,99,99,29.97,29.21,13,8,18,1.38
2013-2-28,35.8,33.3,31.8,35.4,33.0,31.6,99,99,99,30.22,29.96,15,8,22,0.00
2013-3-1,32.2,29.1,25.5,31.9,28.7,25.3,100,98,92,30.34,30.19,18,10,26,0.00
2013-3-2,32.7,27.0,20.8,25.9,20.6,12.9,100,78,49,30.37,30.31,23,10,33,0.17
2013-3-3,42.6,28.2,16.0,29.1,20.6,13.2,100,77,33,30.35,30.21,8,2,11,0.00
2013-3-4,41.5,34.4,29.1,32.1,29.2,24.4,100,81,69,30.23,30.00,14,7,23,0.08
2013-3-5,36.0,32.8,30.2,36.0,31.3,24.2,100,94,73,30.19,28.57,25,11,37,0.59
2013-3-6,31.1,28.9,26.8,30.0,27.5,25.3,100,95,85,30.50,30.19,27,12,38,1.10
2013-3-7,45.0,32.3,26.4,32.5,28.7,25.8,100,88,57,30.57,30.48,10,3,13,0.00
2013-3-8,51.8,39.0,26.8,39.7,33.8,26.4,100,83,58,30.60,30.38,12,4,18,0.00
2013-3-9,58.1,45.9,38.1,46.3,39.7,35.0,100,80,60,30.38,29.95,19,8,28,0.34
2013-3-10,57.4,52.1,48.6,57.1,50.5,41.8,100,95,69,29.96,29.77,19,8,26,0.64
2013-3-11,50.4,36.8,32.9,50.1,35.7,28.8,100,96,85,30.08,29.80,28,13,36,0.01
2013-3-12,43.7,34.6,27.3,35.0,27.5,21.9,100,76,56,30.31,30.08,27,11,40,0.08
2013-3-13,38.7,29.8,24.4,23.9,19.2,13.5,83,66,40,30.53,30.30,22,10,35,0.04
2013-3-14,49.1,34.5,23.7,35.1,28.2,18.0,100,79,49,30.53,30.26,20,7,27,0.14
2013-3-15,62.4,45.8,28.9,50.0,39.5,28.7,100,82,47,30.26,29.79,11,4,15,0.00
2013-3-16,47.3,39.5,34.0,45.2,38.1,33.7,100,95,77,30.23,29.76,21,8,32,0.19
2013-3-17,43.2,35.4,31.3,42.9,31.6,28.2,100,87,63,30.29,30.01,19,10,25,0.06
2013-3-18,49.1,36.7,28.2,41.2,33.7,23.2,100,90,51,30.13,29.83,22,9,31,0.04
2013-3-19,44.4,33.6,25.5,23.6,15.1,4.3,83,49,19,30.32,30.11,24,9,30,0.01
2013-3-20,35.1,26.7,20.7,21.4,10.9,0.1,78,53,29,30.38,30.25,26,12,39,0.14
2013-3-21,43.2,26.9,14.9,17.1,11.3,5.1,84,56,22,30.27,30.14,11,3,15,0.00
2013-3-22,48.6,33.2,17.4,26.3,18.4,6.6,100,61,19,30.22,30.14,10,3,15,0.00
2013-3-23,55.4,42.2,33.8,29.0,24.9,16.8,80,53,25,30.23,30.05,20,7,27,0.00
2013-3-24,36.3,31.3,29.8,32.3,30.3,26.8,99,96,70,30.09,29.70,27,16,42,0.18
2013-3-25,36.0,31.4,27.3,30.5,28.9,26.9,100,91,75,30.29,29.87,21,12,28,0.04
2013-3-26,39.7,34.9,30.7,29.7,26.3,22.5,91,72,53,30.47,30.29,17,7,24,0.00
2013-3-27,53.8,36.2,27.0,26.5,24.2,18.5,93,63,26,30.54,30.46,11,4,15,0.00
2013-3-28,55.6,39.0,21.7,35.7,28.8,21.5,100,72,34,30.54,30.42,7,2,11,0.00
2013-3-29,65.8,47.6,34.2,42.5,35.7,30.0,100,69,29,30.44,30.35,11,3,14,0.00
2013-3-30,56.1,47.3,35.6,49.3,42.5,34.3,100,84,63,30.37,30.06,20,7,26,0.02
2013-3-31,63.5,51.7,41.7,51.6,43.4,31.5,100,76,40,30.10,29.96,22,8,32,0.01
2013-4-1,46.6,38.7,30.7,34.2,21.6,8.5,77,53,23,30.38,30.10,21,10,28,0.00
2013-4-2,49.8,36.8,23.7,23.3,14.7,-0.4,86,47,14,30.50,30.38,16,5,23,0.00
2013-4-3,56.1,40.7,26.2,24.9,17.8,3.5,77,45,13,30.57,30.43,15,5,26,0.01
2013-4-4,65.1,47.4,27.3,29.2,17.0,3.1,86,38,10,30.43,30.17,10,3,13,0.00
2013-4-5,68.9,51.7,37.2,35.6,24.6,6.1,87,41,10,30.34,30.18,19,6,24,0.00
2013-4-6,74.1,59.3,45.3,45.1,33.9,22.0,60,40,20,30.22,29.84,40,18,47,6.30
2013-4-7,81.3,64.7,49.1,60.9,42.7,28.0,93,51,16,30.10,29.92,20,4,30,0.00
2013-4-8,77.2,66.0,57.9,62.6,60.6,57.7,100,84,56,30.03,29.85,25,11,30,0.12
2013-4-9,78.3,69.3,58.6,66.5,62.3,57.8,100,80,58,30.03,29.96,35,13,42,3.57
2013-4-10,70.5,59.1,44.1,70.3,58.7,43.8,100,99,89,30.03,29.77,32,12,45,1.30
2013-4-11,57.7,47.5,39.2,52.6,45.8,32.5,100,94,76,29.86,29.74,23,10,34,0.09
2013-4-12,44.4,40.9,38.1,38.3,35.1,31.4,89,80,72,30.12,29.83,25,13,35,0.01
2013-4-13,56.5,46.0,37.8,44.5,35.0,28.7,100,68,40,30.19,30.08,22,8,30,0.01
2013-4-14,76.8,62.1,46.6,55.0,47.5,40.0,100,63,29,30.11,29.79,30,13,41,10.04
2013-4-15,64.2,57.4,47.8,64.0,56.0,47.6,100,95,66,30.10,29.88,20,10,28,0.28
2013-4-16,57.6,47.0,43.2,51.2,46.8,42.9,100,99,93,30.33,29.97,36,9,51,1.48
2013-4-17,75.2,54.1,45.7,75.0,53.6,44.0,100,98,84,30.32,29.84,23,10,32,0.08
2013-4-18,73.4,59.3,41.4,72.2,58.4,34.7,100,97,78,29.87,29.67,37,15,45,2.49
2013-4-19,45.1,40.4,36.9,35.6,31.0,28.4,81,69,55,30.19,29.83,29,14,40,0.41
2013-4-20,58.1,42.3,32.5,37.2,30.8,25.1,87,66,33,30.52,30.19,10,4,24,0.00
2013-4-21,62.6,49.5,38.3,43.1,36.9,31.3,84,63,40,30.60,30.44,14,5,22,0.00
2013-4-22,72.9,57.7,40.1,50.9,41.8,31.0,96,60,25,30.45,30.16,14,4,20,0.00
2013-4-23,60.4,50.7,39.6,57.7,48.8,33.4,100,93,63,30.20,30.03,20,9,29,0.21
2013-4-24,51.8,42.9,36.1,41.5,36.0,28.6,100,79,43,30.36,30.11,21,9,25,0.05
2013-4-25,60.1,49.0,38.8,40.2,31.9,22.1,90,56,26,30.48,30.32,22,7,30,0.00
2013-4-26,64.0,52.9,41.7,53.1,44.6,38.1,100,75,51,30.51,30.43,24,9,29,0.07
2013-4-27,58.5,52.3,45.7,55.0,50.7,45.2,99,95,68,30.44,30.08,10,4,14,0.31
2013-4-28,63.5,56.0,51.1,62.0,55.1,47.0,100,97,81,30.08,30.01,13,6,17,0.02
2013-4-29,76.1,62.5,44.8,63.2,56.7,44.5,100,83,57,30.10,29.93,24,10,30,0.09
2013-4-30,85.1,71.7,59.9,65.4,61.2,52.8,100,73,37,30.10,29.93,24,12,30,0.20
2013-5-1,86.0,72.1,56.1,63.3,57.4,46.9,99,66,27,30.25,30.11,18,5,25,0.00
2013-5-2,77.4,63.5,48.9,66.0,60.0,47.6,100,89,58,30.30,30.19,17,6,27,0.24
2013-5-3,68.0,54.9,46.6,67.6,54.6,46.3,100,99,88,30.22,29.91,16,5,24,0.63
2013-5-4,62.1,52.6,46.9,60.0,52.3,41.6,99,99,99,30.17,29.97,13,5,17,0.37
2013-5-5,66.6,57.8,50.4,63.2,56.4,44.9,99,95,70,30.17,30.05,14,6,20,0.12
2013-5-6,73.6,62.6,53.4,64.3,57.9,51.7,100,86,62,30.14,30.08,17,5,22,0.01
2013-5-7,88.9,70.3,57.4,62.0,52.8,36.0,99,62,18,30.19,30.10,14,3,17,0.00
2013-5-8,86.2,71.2,54.0,63.2,50.1,31.9,100,53,15,30.19,30.11,11,3,14,0.00
2013-5-9,70.2,64.2,60.8,69.9,63.9,60.5,99,99,99,30.15,29.95,32,5,48,0.76
2013-5-10,65.3,58.4,52.0,64.1,58.1,51.7,100,99,89,30.14,29.97,17,7,25,0.01
2013-5-11,64.4,56.0,47.1,57.7,43.7,23.5,99,68,26,30.27,30.09,27,9,39,0.31
2013-5-12,59.9,50.5,40.5,41.4,29.3,18.0,81,47,23,30.35,30.26,21,7,31,0.00
2013-5-13,72.5,57.9,38.7,44.3,35.3,17.5,100,50,15,30.36,30.19,15,4,21,0.00
2013-5-14,89.6,72.4,55.2,62.2,54.2,42.7,81,55,31,30.19,29.89,22,12,27,0.00
2013-5-15,89.4,79.5,68.5,68.1,58.9,51.0,79,50,37,30.04,29.93,25,10,34,0.00
2013-5-16,90.7,75.2,65.8,70.9,62.4,49.3,100,68,28,30.10,29.97,26,6,30,0.06
2013-5-17,84.0,71.2,60.1,72.9,65.0,57.6,100,83,47,30.14,30.07,17,4,22,0.00
2013-5-18,87.1,73.7,61.0,73.3,65.2,60.5,100,78,45,30.17,30.05,10,3,17,0.01
2013-5-19,92.5,78.7,64.6,75.5,70.1,64.3,99,77,51,30.08,29.87,23,9,30,0.17
2013-5-20,87.6,76.2,63.5,75.9,66.0,55.4,100,74,37,30.04,29.87,32,14,46,2.69
2013-5-21,81.5,72.2,63.5,73.7,68.4,63.2,100,89,62,29.99,29.83,30,14,36,0.24
2013-5-22,75.9,68.5,61.9,69.2,61.7,54.3,99,81,50,29.99,29.80,24,10,32,0.00
2013-5-23,63.5,59.5,50.7,61.6,56.1,50.2,100,89,68,30.40,29.98,22,9,33,0.01
2013-5-24,77.2,57.3,41.7,52.2,40.1,24.4,100,62,17,30.58,30.40,15,4,20,0.00
2013-5-25,61.3,54.3,50.0,58.3,49.5,41.8,100,85,54,30.57,30.35,17,5,22,0.38
2013-5-26,69.1,59.0,52.0,68.6,58.5,49.7,100,98,89,30.42,30.16,18,5,24,1.33
2013-5-27,81.0,67.4,62.4,76.4,66.1,7.7,100,96,10,30.21,29.90,28,5,59,0.93
2013-5-28,83.3,73.1,63.9,77.2,70.5,63.6,99,92,70,30.06,29.91,28,14,36,0.19
2013-5-29,86.7,75.8,64.4,73.2,68.5,64.1,99,80,56,30.11,30.00,31,12,43,0.31
2013-5-30,85.3,75.9,65.8,77.3,70.8,65.6,99,85,63,30.08,29.95,35,15,42,14.67
2013-5-31,78.4,70.9,63.9,77.4,70.2,59.5,100,98,85,30.74,29.88,27,11,44,1.31
2013-6-1,75.2,68.4,64.2,73.1,66.5,59.1,100,94,67,30.00,29.79,27,14,34,0.51
2013-6-2,67.5,62.3,58.8,64.6,61.2,58.3,100,96,84,30.19,29.98,16,6,21,0.00
2013-6-3,77.2,62.7,53.8,58.7,53.0,45.6,100,74,39,30.28,30.16,10,3,13,0.00
2013-6-4,81.0,67.0,51.3,63.9,56.0,50.8,100,72,38,30.26,30.16,11,3,14,0.00
2013-6-5,89.1,72.6,57.9,64.1,60.0,53.8,100,69,31,30.18,30.00,8,2,11,0.00
2013-6-6,79.0,69.9,60.3,68.0,62.6,58.7,100,79,51,30.03,29.96,14,7,21,0.00
2013-6-7,77.7,66.8,56.1,63.6,56.9,52.5,100,73,45,30.06,30.01,17,7,22,0.00
2013-6-8,83.5,70.2,54.1,63.3,55.7,48.1,100,64,31,30.13,30.05,15,4,22,0.00
2013-6-9,83.1,70.3,62.1,69.5,63.2,56.4,100,82,42,30.13,29.93,24,9,32,0.39
2013-6-10,79.9,70.0,63.0,70.4,64.5,61.1,100,84,55,30.06,29.91,13,5,18,0.00
2013-6-11,80.6,75.0,59.9,70.7,66.5,59.6,100,77,64,30.12,30.05,16,8,21,0.00
2013-6-12,94.8,83.5,62.1,75.2,69.6,54.4,76,63,47,30.33,29.85,25,12,34,0.12
2013-6-13,86.7,77.7,68.5,75.4,60.0,43.0,99,59,24,30.19,29.88,22,9,32,0.01
2013-6-14,86.4,73.7,57.2,62.3,56.1,46.0,100,58,26,30.32,30.15,12,3,16,0.00
2013-6-15,83.7,73.0,66.6,75.8,67.0,57.9,100,82,60,30.28,30.09,21,7,34,0.46
2013-6-16,85.1,74.6,67.1,77.3,71.8,66.8,100,92,69,30.23,30.11,16,6,20,0.02
2013-6-17,95.4,78.5,66.2,83.0,69.2,59.1,99,77,33,30.17,30.08,14,2,19,0.00
2013-6-18,87.8,76.3,63.9,73.3,65.9,58.1,100,73,41,30.21,30.09,14,5,21,0.00
2013-6-19,92.1,75.6,59.4,72.7,62.7,54.8,100,69,31,30.30,30.20,9,3,12,0.00
2013-6-20,94.1,81.0,66.6,75.5,66.2,56.4,100,66,32,30.34,30.25,14,4,17,0.00
2013-6-21,92.5,81.8,72.3,76.9,71.3,66.9,100,73,45,30.31,30.17,22,8,33,0.15
2013-6-22,93.0,77.2,68.5,78.9,73.6,68.3,100,90,53,30.30,30.20,19,8,26,0.02
2013-6-23,82.8,74.2,68.2,78.7,70.6,66.9,100,90,64,30.26,30.14,24,7,29,0.02
2013-6-24,90.5,78.3,67.8,80.7,72.7,67.6,100,84,59,30.30,30.11,19,6,25,0.00
2013-6-25,92.1,79.4,70.9,79.8,75.2,69.6,100,88,54,30.18,28.61,21,9,33,0.06
2013-6-26,85.1,76.2,69.6,83.3,75.4,11.4,99,98,10,30.08,29.91,24,4,31,1.31
2013-6-27,90.7,81.2,75.0,81.8,74.6,65.7,100,82,45,30.07,29.96,17,6,25,0.00
2013-6-28,85.5,78.7,71.2,75.6,66.0,54.4,100,69,37,30.03,29.87,19,7,30,0.00
2013-6-29,77.7,70.0,64.2,72.9,68.0,62.2,100,94,74,29.94,29.83,19,6,30,0.52
2013-6-30,79.9,69.2,62.4,71.7,64.4,50.9,99,86,47,30.14,29.94,19,8,28,0.05
2013-7-1,80.1,71.1,61.9,65.1,56.7,50.2,89,62,38,30.20,30.12,23,10,31,0.07
2013-7-2,74.7,67.0,62.8,67.1,62.2,57.2,100,86,61,30.25,30.17,16,7,22,0.01
2013-7-3,89.6,71.1,60.1,68.6,61.1,52.4,100,76,30,30.29,30.22,10,2,15,0.00
2013-7-4,90.0,75.6,61.0,70.1,63.5,58.5,99,71,36,30.31,30.22,10,3,15,0.00
2013-7-5,88.2,75.4,62.6,76.8,67.1,61.4,99,79,43,30.30,30.21,10,2,14,0.00
2013-7-6,92.8,76.3,65.3,78.5,70.3,64.7,100,84,40,30.27,30.18,8,2,13,0.00
2013-7-7,91.4,78.6,66.6,78.9,72.4,66.1,100,83,52,30.25,30.17,13,6,17,0.00
2013-7-8,90.5,80.5,74.8,84.0,78.4,74.6,100,93,66,30.30,30.19,14,6,17,0.00
2013-7-9,94.1,83.6,76.1,84.3,78.7,74.6,100,87,57,30.24,30.11,14,5,19,0.00
2013-7-10,88.2,80.1,64.2,83.4,76.3,64.0,100,90,57,30.20,30.05,22,7,29,0.43
2013-7-11,88.0,75.1,64.0,70.7,64.9,58.5,100,74,43,30.29,30.19,13,4,17,0.00
2013-7-12,90.0,73.9,56.8,70.0,59.9,46.7,100,69,27,30.35,30.25,8,2,13,0.00
2013-7-13,91.8,76.0,60.1,73.3,65.5,59.6,100,74,37,30.33,30.25,12,2,17,0.00
2013-7-14,96.6,80.0,64.0,80.2,71.4,63.8,100,79,43,30.37,30.28,8,2,12,0.00
2013-7-15,97.3,84.2,71.6,82.2,76.4,71.3,99,80,44,30.46,30.35,7,1,11,0.00
2013-7-16,99.7,83.7,71.2,82.3,75.2,69.9,100,79,41,30.52,30.43,11,3,15,0.00
2013-7-17,101.3,86.8,71.4,84.3,75.7,68.8,99,74,38,30.54,30.39,5,1,8,0.00
2013-7-18,97.5,85.6,72.7,86.1,77.3,71.5,100,79,47,30.41,30.21,9,2,17,0.00
2013-7-19,95.4,85.4,75.7,83.4,78.4,73.5,100,82,52,30.22,30.05,14,6,19,0.00
2013-7-20,91.9,81.9,70.7,82.4,75.7,66.5,100,83,52,30.13,30.03,12,4,21,0.01
2013-7-21,85.8,75.2,67.8,81.0,74.3,67.4,100,97,77,30.15,30.05,6,1,8,0.17
2013-7-22,92.7,79.2,66.7,80.9,72.7,66.5,99,83,51,30.07,29.97,11,2,16,0.01
2013-7-23,86.9,77.6,68.2,80.6,71.6,65.7,100,83,56,30.79,29.96,16,4,22,0.00
2013-7-24,80.8,68.7,58.6,67.6,59.1,51.4,100,75,42,30.24,30.12,13,4,18,0.00
2013-7-25,88.5,71.0,53.2,71.7,59.0,51.8,100,72,32,30.33,30.23,8,1,11,0.00
2013-7-26,75.7,68.0,59.2,75.5,67.4,58.7,100,98,84,30.28,30.13,16,4,21,0.19
2013-7-27,71.4,64.3,55.9,67.9,57.4,46.7,100,81,45,30.20,30.13,17,5,25,0.01
2013-7-28,77.4,64.2,50.9,61.8,54.2,48.6,99,74,41,30.26,30.17,19,5,27,0.00
2013-7-29,83.3,69.3,51.4,70.7,58.9,51.2,100,74,38,30.37,30.26,11,1,15,0.00
2013-7-30,73.0,68.7,65.8,72.8,68.4,62.7,99,99,99,30.35,30.23,11,2,15,0.35
2013-7-31,78.8,72.0,65.7,78.1,71.7,65.4,100,99,95,30.25,30.18,10,2,16,0.00
2013-8-1,86.5,74.8,64.4,77.6,66.6,58.2,100,79,44,30.26,30.18,11,2,16,0.00
2013-8-2,84.0,72.5,65.1,79.5,71.6,64.9,100,97,83,30.19,30.11,15,4,20,0.08
2013-8-3,85.5,75.2,64.9,75.1,68.2,57.5,99,82,41,30.32,30.14,11,3,16,0.00
2013-8-4,88.7,71.9,57.0,69.8,60.9,54.6,100,74,32,30.39,30.29,7,1,10,0.00
2013-8-5,81.1,70.6,57.7,72.2,64.8,57.5,100,84,57,30.31,30.08,15,4,21,0.00
2013-8-6,93.6,77.4,68.0,82.5,73.4,67.7,100,89,51,30.13,30.03,11,2,14,0.00
2013-8-7,86.7,76.9,68.5,83.4,76.3,68.1,100,98,80,30.08,29.91,14,3,17,0.00
2013-8-8,86.2,74.7,67.6,81.8,74.3,67.2,100,99,82,30.06,29.97,10,3,14,0.01
2013-8-9,88.7,73.3,60.3,74.4,67.1,59.8,100,84,47,30.15,30.04,8,2,12,0.00
2013-8-10,85.1,74.9,64.4,74.2,66.6,59.8,100,79,47,30.22,30.15,10,3,15,0.00
2013-8-11,92.5,74.2,57.0,73.9,63.4,56.6,99,74,36,30.24,30.13,8,1,11,0.00
2013-8-12,84.7,73.3,63.1,79.6,71.0,62.9,100,93,69,30.17,29.98,9,2,14,0.12
2013-8-13,79.5,68.6,54.9,72.1,62.9,51.1,99,84,48,30.24,30.01,17,6,27,0.01
2013-8-14,79.3,63.4,48.0,65.2,55.2,47.8,99,78,41,30.31,30.22,9,1,14,0.00
2013-8-15,55.2,52.4,51.4,55.0,52.2,51.2,99,99,99,30.26,30.24,2,0,2,0.00
2013-8-16,85.5,66.7,52.3,67.2,58.1,52.1,100,78,38,30.26,29.89,14,2,18,0.00
2013-8-17,84.0,68.1,55.0,68.2,59.9,53.5,100,79,38,29.99,29.90,11,3,15,0.00
2013-8-18,93.0,72.8,57.2,69.4,63.1,56.9,100,77,35,29.96,29.86,8,2,13,0.00
2013-8-19,93.0,75.3,58.5,74.9,66.7,58.2,100,79,42,29.91,29.81,8,1,12,0.00
2013-8-20,94.3,76.3,60.3,75.5,68.0,60.0,99,79,39,29.90,29.81,8,1,11,0.00
2013-8-21,90.7,77.2,63.9,77.3,70.0,63.6,100,82,49,29.90,29.79,12,3,16,0.00
2013-8-22,94.8,77.3,68.5,83.9,73.1,68.3,100,88,51,29.86,29.80,19,3,28,0.00
2013-8-23,92.1,77.4,66.7,78.0,71.0,66.5,100,84,48,29.91,29.84,10,3,13,0.00
2013-8-24,95.4,77.6,61.3,77.6,68.9,60.9,100,79,41,30.00,29.90,8,2,12,0.00
2013-8-25,94.3,76.8,60.6,73.3,67.4,60.4,100,77,40,30.04,29.94,11,2,14,0.00
2013-8-26,93.7,80.0,66.7,83.2,74.1,66.3,100,85,48,29.98,29.82,12,4,15,0.00
2013-8-27,93.6,81.6,72.3,81.8,74.3,68.3,100,82,46,29.83,29.72,16,6,21,0.00
2013-8-28,95.5,83.8,72.3,80.4,73.6,69.1,100,75,46,29.77,29.71,16,6,24,0.00
2013-8-29,95.5,80.0,69.4,85.6,76.7,69.0,100,91,58,29.83,29.73,8,2,10,0.00
2013-8-30,97.5,83.2,68.7,84.6,76.0,63.3,100,82,44,29.75,29.58,22,4,30,0.00
2013-8-31,97.2,83.7,71.4,85.4,76.0,62.6,100,80,52,29.63,29.48,15,6,24,0.00
2013-9-1,90.0,77.1,69.6,82.4,74.3,69.2,100,92,62,29.61,29.53,8,2,12,0.00
2013-9-2,86.7,73.6,62.8,74.1,65.8,59.3,100,80,42,29.74,29.61,12,4,18,0.00
2013-9-3,86.0,69.5,55.8,70.9,60.5,55.5,100,78,40,29.87,29.74,10,2,17,0.00
2013-9-4,78.1,63.7,62.6,70.3,63.2,62.3,99,98,70,29.96,29.83,2,0,4,0.00
2013-9-5,96.1,75.6,57.4,72.4,63.7,56.4,99,74,30,30.04,29.96,7,1,10,0.00
2013-9-6,92.1,75.6,61.2,74.6,66.5,60.8,100,78,39,30.02,29.86,9,2,14,0.00
2013-9-7,91.2,76.3,62.4,77.6,68.6,60.4,100,81,37,29.88,29.74,15,4,22,0.00
2013-9-8,94.1,78.7,70.5,80.2,73.6,69.2,100,87,47,29.81,29.73,19,2,24,0.24
2013-9-9,95.4,81.0,69.6,82.7,75.0,69.4,100,85,47,29.79,29.71,14,5,20,0.00
2013-9-10,96.6,82.9,70.9,79.5,72.6,64.9,100,77,37,29.90,29.79,17,5,21,0.00
2013-9-11,94.6,82.2,68.7,77.1,70.2,58.3,100,72,31,29.94,29.84,17,6,27,0.00
2013-9-12,84.4,73.3,59.7,76.7,65.4,45.6,100,80,28,29.91,29.80,19,5,25,0.35
2013-9-13,74.3,62.4,50.9,60.7,50.9,37.2,99,71,29,30.00,29.90,14,6,22,0.00
2013-9-14,81.0,60.4,42.6,54.8,47.7,37.6,100,71,23,30.02,29.87,8,2,12,0.00
2013-9-15,78.3,64.8,51.1,68.8,56.8,50.8,100,79,40,29.96,29.81,16,5,23,0.00
2013-9-16,72.9,62.5,52.9,63.6,57.8,52.4,99,86,54,30.13,29.96,14,6,24,0.00
2013-9-17,80.6,64.4,50.5,63.8,57.1,50.3,99,81,45,30.11,29.92,9,2,14,0.00
2013-9-18,86.9,73.0,62.1,78.1,69.6,61.5,100,90,59,29.92,29.77,16,5,24,0.00
2013-9-19,93.2,81.1,72.9,79.6,74.1,68.5,100,82,46,29.81,29.65,17,9,26,0.00
2013-9-20,79.3,68.6,56.8,79.1,67.3,56.6,100,96,80,29.74,29.68,14,5,21,0.00
2013-9-21,73.6,61.0,51.1,60.3,52.7,45.5,100,78,39,29.77,29.70,14,4,21,0.00
2013-9-22,82.4,61.6,45.1,58.8,49.9,39.9,100,73,26,29.98,29.77,8,2,11,0.00
2013-9-23,81.7,62.8,46.9,56.1,49.2,38.4,100,69,23,30.00,29.89,10,3,14,0.00
2013-9-24,84.9,66.0,48.2,64.9,57.3,47.9,99,78,41,29.92,29.77,10,3,15,0.00
2013-9-25,90.0,70.3,55.4,66.1,61.0,55.1,100,77,34,29.84,29.76,11,3,14,0.00
2013-9-26,91.6,71.0,55.2,64.2,58.0,51.2,99,70,27,29.98,29.83,7,2,11,0.00
2013-9-27,89.1,68.8,51.3,61.6,54.2,42.8,100,69,20,30.07,29.95,11,2,18,0.00
2013-9-28,85.1,70.2,53.6,69.9,60.4,53.3,99,75,44,30.00,29.86,22,6,30,0.00
2013-9-29,79.7,63.4,48.7,68.3,52.5,37.6,99,75,24,30.00,29.91,12,4,19,0.00
2013-9-30,79.3,61.6,44.8,64.8,56.0,44.5,99,85,43,29.93,29.82,15,3,20,0.00
2013-10-1,77.4,69.5,64.2,75.1,68.8,64.0,100,98,85,29.95,29.85,14,6,22,0.00
2013-10-2,89.8,73.8,64.8,77.5,69.9,64.5,99,89,49,30.00,29.89,8,3,14,0.00
2013-10-3,87.8,74.4,64.2,76.9,69.5,64.0,100,87,53,29.91,29.78,21,7,30,0.12
2013-10-4,90.3,76.1,66.7,78.7,70.9,66.3,100,86,48,29.91,29.82,15,5,21,0.01
2013-10-5,80.2,72.1,57.0,78.6,70.6,56.6,100,95,73,29.88,29.74,18,6,29,0.01
2013-10-6,58.5,53.2,46.2,56.6,48.4,39.0,100,86,56,29.81,29.73,25,10,34,0.30
2013-10-7,71.8,55.5,45.1,55.9,48.8,43.7,100,82,37,30.05,29.77,14,5,21,0.00
2013-10-8,82.8,62.9,45.9,57.9,48.1,39.3,100,67,23,30.14,30.04,9,2,14,0.00
2013-10-9,82.4,61.6,43.3,55.6,48.1,38.3,100,70,23,30.14,30.02,8,1,15,0.00
2013-10-10,85.3,65.1,48.7,65.5,57.1,48.3,100,80,38,30.09,29.94,12,2,17,0.00
2013-10-11,80.8,64.3,54.1,66.5,59.9,53.9,100,88,44,29.98,29.93,16,4,23,0.00
2013-10-12,77.9,65.6,53.6,68.9,54.2,44.8,99,67,55,30.14,29.90,11,4,17,0.01
2013-10-13,74.1,58.4,44.6,50.8,36.7,16.3,100,53,12,30.32,30.14,13,4,17,0.00
2013-10-14,75.9,55.3,36.5,49.7,40.9,29.6,100,65,19,30.30,30.01,14,2,19,0.00
2013-10-15,68.4,61.2,54.9,68.1,59.3,48.4,100,94,72,30.01,29.78,16,7,21,0.01
2013-10-16,57.0,50.4,42.8,54.6,46.5,42.5,100,87,65,29.94,29.88,14,5,22,0.00
2013-10-17,63.0,52.0,45.7,51.7,45.7,39.6,99,82,44,29.92,29.81,20,5,25,0.00
2013-10-18,58.5,49.4,43.2,51.3,44.1,37.7,100,84,51,29.96,29.84,13,5,21,0.00
2013-10-19,57.2,47.8,40.6,45.0,40.4,34.4,100,78,43,29.91,29.82,24,8,30,0.01
2013-10-20,71.1,55.3,38.3,48.0,42.6,38.0,100,67,32,29.85,29.73,24,11,31,0.08
2013-10-21,55.6,47.5,32.2,50.4,39.9,29.8,100,77,47,29.98,29.81,17,6,25,0.00
2013-10-22,48.9,40.0,30.4,48.3,39.4,30.1,100,98,79,29.97,29.73,18,4,27,0.01
2013-10-23,47.1,40.3,34.5,38.4,34.3,28.1,100,82,49,30.04,29.88,17,6,24,0.00
2013-10-24,44.2,38.0,30.2,39.3,28.0,19.5,99,70,41,30.31,30.02,21,7,27,0.02
2013-10-25,55.2,40.6,26.2,35.8,29.3,24.7,100,69,32,30.41,30.12,17,6,22,0.00
2013-10-26,61.9,48.0,38.7,41.7,32.3,21.1,74,56,26,30.11,29.90,24,10,40,0.05
2013-10-27,61.0,44.2,28.2,40.7,30.3,23.9,100,64,25,30.05,29.94,14,3,19,0.00
2013-10-28,72.3,49.8,30.6,39.9,32.3,19.5,100,60,16,30.21,29.99,8,2,14,0.00
2013-10-29,60.8,48.8,36.5,59.6,46.2,34.9,100,91,66,30.21,30.02,10,3,14,0.02
2013-10-30,72.9,61.2,53.1,71.5,61.0,49.9,99,99,99,30.03,29.75,21,5,27,2.19
2013-10-31,70.2,59.2,48.0,69.7,59.0,47.8,99,99,99,29.75,29.28,23,10,29,1.48
2013-11-1,56.3,49.0,41.2,51.0,45.2,40.9,100,88,62,29.75,29.51,21,7,26,0.60
2013-11-2,53.4,45.4,38.1,46.9,40.8,35.2,99,85,54,30.10,29.73,19,6,26,0.02
2013-11-3,60.4,44.9,28.4,44.7,35.5,26.1,99,75,28,30.23,30.09,10,3,14,0.00
2013-11-4,58.6,51.2,43.7,48.9,44.2,39.5,100,78,56,30.15,30.04,23,9,33,0.13
2013-11-5,59.2,55.1,51.4,58.5,53.9,48.4,100,96,82,30.21,29.92,19,8,25,0.24
2013-11-6,58.3,48.4,36.3,57.8,48.1,35.3,100,99,96,30.17,29.81,26,11,40,0.32
2013-11-7,54.0,40.1,29.8,41.1,33.7,29.1,100,81,45,30.27,30.16,21,4,29,0.20
2013-11-8,54.9,42.8,26.8,39.9,33.7,26.2,100,73,40,30.30,29.98,2,0,11,9.21
2013-11-9,67.1,53.8,43.2,44.1,38.2,29.7,90,58,27,30.15,29.92,0,0,6,0.00
2013-11-10,56.1,42.9,34.7,38.2,34.0,29.6,100,73,39,30.35,30.15,0,0,6,0.00
2013-11-11,58.5,42.5,27.7,47.3,38.9,27.0,100,88,66,30.19,29.93,6,0,21,0.30
2013-11-12,33.4,25.9,19.8,27.3,22.0,19.6,100,86,64,30.42,30.18,0,0,1,0.76
2013-11-13,43.2,30.7,17.6,24.6,21.4,17.2,100,72,38,30.34,29.93,0,0,1,2.15
2013-11-14,56.1,41.9,29.3,30.6,24.5,11.0,78,53,18,29.93,29.69,0,0,1,0.13
2013-11-15,55.2,45.5,39.4,45.8,35.9,30.2,100,70,50,29.72,29.61,0,0,1,0.00
2013-11-16,63.7,56.4,46.2,63.4,56.1,46.0,100,99,92,29.61,29.28,2,0,20,10.56
2013-11-17,75.4,62.1,47.5,71.3,56.2,41.6,99,83,42,29.59,28.96,0,0,2,11.61
2013-11-18,52.7,44.6,33.8,46.6,35.6,27.6,100,73,41,29.96,29.59,0,0,1,0.04
2013-11-19,53.4,36.4,24.4,34.1,30.4,24.2,100,82,41,30.03,29.90,0,0,0,0.00
2013-11-20,45.1,38.2,30.0,42.9,36.2,29.6,100,93,66,29.91,29.69,0,0,1,0.15
2013-11-21,50.2,47.8,42.4,49.9,47.6,42.2,100,99,99,29.87,29.75,0,0,1,0.17
2013-11-22,47.3,38.3,29.1,47.0,38.0,28.7,100,99,92,30.19,29.86,0,0,0,0.08
2013-11-23,29.1,23.8,15.4,28.9,19.2,10.4,100,83,64,30.39,30.17,0,0,1,0.04
2013-11-24,36.5,20.8,11.1,16.7,11.3,3.2,100,70,29,30.44,29.85,0,0,1,0.00
2013-11-25,35.2,30.5,23.9,19.4,16.0,10.4,60,54,49,29.85,29.59,0,0,0,0.00
2013-11-26,37.2,27.9,18.5,26.6,16.6,5.0,84,64,51,29.62,29.47,0,0,0,0.00
2013-11-27,27.7,18.9,12.9,32.0,6.4,1.4,69,54,42,29.74,29.59,0,0,0,0.00
2013-11-28,40.8,28.1,15.1,21.2,14.2,5.0,72,58,43,29.94,29.62,0,0,0,0.00
2013-11-29,42.1,28.2,12.0,32.0,19.9,6.8,86,64,45,30.03,29.83,0,0,0,0.00
2013-11-30,53.8,37.3,24.8,33.8,26.9,19.4,88,68,44,29.83,29.50,16,3,19,0.00
2013-12-1,51.3,38.3,27.5,37.4,30.0,24.8,100,75,48,29.56,29.35,8,4,10,0.00
2013-12-2,50.7,39.5,29.7,41.0,35.8,26.6,100,87,65,29.35,29.09,12,5,13,0.00
2013-12-3,53.2,45.8,36.9,51.8,45.9,37.4,100,99,95,29.15,29.03,17,7,19,0.00
2013-12-4,61.2,51.0,39.6,59.0,49.1,33.8,100,93,73,29.24,28.91,25,9,32,0.00
2013-12-5,39.6,26.5,21.9,33.8,14.2,6.8,81,62,53,29.68,29.24,17,10,24,0.00
2013-12-6,21.9,18.6,11.3,32.0,9.1,-0.4,60,56,53,30.00,29.65,14,8,20,0.00
2013-12-7,24.1,14.6,6.8,32.0,16.0,-0.4,64,54,43,30.12,29.91,12,6,13,0.00
2013-12-8,27.9,23.4,16.7,23.0,16.7,5.0,95,80,58,29.91,29.41,15,9,18,0.00
2013-12-9,25.5,21.4,14.2,21.2,10.6,3.2,89,66,53,29.71,29.44,8,8,8,0.00
2013-12-10,30.9,18.0,0.0,32.0,18.9,1.4,65,55,42,29.74,29.56,8,7,8,0.00
2013-12-11,28.9,17.7,0.0,32.0,16.7,-4.0,77,58,43,30.03,29.65,18,9,25,0.00
2013-12-12,35.2,17.2,0.0,32.0,17.0,-0.4,70,48,39,30.03,29.65,13,5,13,0.00
2013-12-13,44.1,28.8,16.5,33.8,20.5,8.6,100,74,41,29.65,29.41,17,7,19,0.00
2013-12-14,38.3,31.6,23.7,35.6,29.4,17.6,100,91,79,29.50,29.26,19,7,27,0.17
2013-12-15,28.2,22.3,15.6,19.4,14.3,8.6,92,75,56,29.56,29.44,16,7,20,0.00
2013-12-16,32.9,22.9,17.1,23.0,17.6,12.2,100,84,60,29.50,29.38,14,6,17,0.00
2013-12-17,36.5,28.4,22.3,30.2,20.8,8.6,97,76,52,29.62,29.47,14,7,19,0.04
2013-12-18,38.8,27.6,9.3,33.8,26.3,-0.4,83,66,51,29.62,29.29,28,12,36,0.04
2013-12-19,50.2,43.1,36.9,48.2,40.2,33.8,97,87,68,29.32,29.18,21,11,27,0.00
2013-12-20,63.9,47.2,0.0,59.0,45.8,30.2,100,93,71,29.26,29.09,19,10,24,0.04
2013-12-21,33.4,32.0,0.0,33.8,31.8,28.4,100,99,93,29.26,28.94,9,1,11,0.08
2013-12-22,34.9,31.2,24.3,33.8,29.6,19.4,100,94,82,29.62,28.94,14,7,21,0.00
2013-12-23,24.1,17.3,6.8,32.0,16.4,5.0,84,72,60,29.94,29.62,17,9,20,0.00
2013-12-24,22.1,13.5,2.3,32.0,17.2,-0.4,69,61,52,30.00,29.71,20,8,24,0.00
2013-12-25,32.5,28.5,22.1,30.2,20.5,8.6,87,74,57,29.74,29.59,20,10,24,0.00
2013-12-26,45.5,32.4,18.7,28.4,23.9,14.0,92,73,48,29.77,29.59,16,8,20,0.00
2013-12-27,48.4,35.2,23.0,32.0,27.4,17.6,90,75,49,29.74,29.56,13,6,18,0.00
2013-12-28,53.4,38.9,32.4,35.6,31.0,26.6,86,73,49,29.59,29.29,17,8,20,0.00
2013-12-29,36.7,25.5,9.5,32.0,23.4,5.0,95,81,68,29.65,29.20,18,7,24,0.00
2013-12-30,21.9,13.4,2.5,32.0,16.6,-0.4,69,60,46,29.74,29.59,16,5,17,0.00
2013-12-31,35.2,25.7,15.8,21.2,13.5,6.8,89,62,47,29.80,29.53,14,6,17,0.00
2014-1-1,37.6,26.2,19.8,30.2,21.0,15.8,92,83,62,29.56,29.44,14,6,18,0.00
2014-1-2,20.5,13.8,0.0,32.0,18.5,5.0,90,73,58,29.83,29.44,20,11,23,0.00